FW5819 Weather Reports


Display with metric or nautical units.
time (UTC)temp
F
wind
direction
speed
MPH
gust
MPH
rain 1hr
in
rain 24hr
in
rain mn
in
humidity
%
barometer
mb
20260906193042 75 14 3.0 10.0 0.00 0.01 0.01 74 1018.3
20260906191547 76 338 1.0 7.0 0.00 0.01 0.01 76 1018.4
20260906190043 75 290 3.0 13.0 0.00 0.01 0.01 76 1018.6
20260906184544 75 24 2.0 10.0 0.00 0.01 0.01 76 1018.6
20260906183049 76 352 3.0 10.0 0.00 0.01 0.01 76 1018.6
20260906181544 75 63 4.0 14.0 0.00 0.01 0.01 75 1018.8
20260906180044 76 329 4.0 9.0 0.00 0.01 0.01 75 1019.2
20260906174541 76 294 4.0 10.0 0.00 0.01 0.01 73 1019.1
20260906173041 76 28 2.0 8.0 0.00 0.01 0.01 71 1019.1
20260906171543 76 325 1.0 6.0 0.00 0.01 0.01 70 1019.1
20260906170042 76 319 2.0 9.0 0.00 0.01 0.01 71 1019.0
20260906164540 76 150 2.0 10.0 0.00 0.03 0.01 71 1019.1
20260906163045 76 22 3.0 11.0 0.00 0.03 0.01 69 1019.1
20260906161543 75 132 2.0 8.0 0.00 0.03 0.01 70 1019.1
20260906160049 75 322 3.0 8.0 0.00 0.03 0.01 71 1019.1
20260906154556 74 187 3.0 9.0 0.00 0.18 0.01 72 1019.2
20260906153043 74 29 3.0 7.0 0.00 0.18 0.01 73 1018.9
20260906151542 74 0 1.0 8.0 0.00 0.18 0.01 73 1019.0
20260906150043 74 13 2.0 7.0 0.00 0.18 0.01 75 1018.9
20260906144544 74 0 1.0 5.0 0.00 0.18 0.01 79 1018.8
20260906143041 73 65 2.0 8.0 0.00 0.18 0.01 79 1018.8
20260906141540 73 0 0.0 5.0 0.00 0.18 0.01 83 1018.7
20260906140042 72 63 1.0 4.0 0.00 0.18 0.01 84 1018.7
20260906134548 71 315 1.0 3.0 0.00 0.18 0.01 90 1018.7
20260906133105 71 88 1.0 5.0 0.00 0.18 0.01 93 1018.4
20260906131539 70 113 0.0 1.0 0.00 0.18 0.01 96 1018.5
20260906130043 68 0 0.0 1.0 0.00 0.18 0.01 96 1018.3
20260906124542 65 0 0.0 1.0 0.00 0.18 0.01 96 1018.3
20260906123039 63 0 0.0 0.0 0.00 0.18 0.01 96 1018.1
20260906121544 61 0 0.0 1.0 0.00 0.18 0.01 96 1018.2
20260906120042 59 0 0.0 0.0 0.00 0.18 0.01 96 1018.0
20260906114552 58 115 0.0 0.0 0.00 0.18 0.01 95 1017.8
20260906113045 57 0 0.0 0.0 0.00 0.18 0.01 95 1017.7
20260906111545 57 0 0.0 0.0 0.00 0.18 0.01 95 1017.6
20260906110041 57 0 0.0 0.0 0.00 0.18 0.01 95 1017.4
20260906104542 57 0 0.0 0.0 0.00 0.18 0.01 95 1017.2
20260906103043 57 0 0.0 0.0 0.00 0.18 0.01 94 1017.3
20260906101541 57 0 0.0 0.0 0.01 0.18 0.01 94 1017.3
20260906100042 57 0 0.0 0.0 0.01 0.18 0.01 94 1017.3
20260906094548 57 0 0.0 0.0 0.01 0.18 0.01 94 1017.2
20260906093053 57 0 0.0 0.0 0.01 0.18 0.01 94 1017.3
20260906092003 58 0 0.0 0.0 0.00 0.17 0.00 94 1017.1
20260906090043 58 0 0.0 0.0 0.00 0.17 0.00 94 1017.2
20260906084538 58 0 0.0 1.0 0.00 0.18 0.00 94 1017.1
20260906083044 58 0 0.0 0.0 0.00 0.18 0.00 94 1017.1
20260906081544 58 0 0.0 0.0 0.00 0.18 0.00 94 1016.9
20260906080043 59 0 0.0 0.0 0.00 0.18 0.00 93 1016.7
20260906074542 59 0 0.0 0.0 0.00 0.18 0.00 93 1016.5
20260906073044 59 0 0.0 1.0 0.00 0.18 0.00 93 1016.5
20260906071544 59 0 0.0 0.0 0.00 0.18 0.00 93 1016.5
20260906070039 59 0 0.0 1.0 0.00 0.18 0.00 93 1016.4
20260906064543 60 0 0.0 0.0 0.00 0.18 0.00 92 1016.3
20260906063043 60 0 0.0 1.0 0.00 0.18 0.00 93 1016.2
20260906061539 60 0 0.0 0.0 0.00 0.18 0.00 92 1016.3
20260906060048 61 0 0.0 0.0 0.00 0.18 0.00 92 1016.6
20260906054557 61 0 0.0 0.0 0.00 0.18 0.00 92 1016.6
20260906053044 61 0 0.0 0.0 0.00 0.18 0.00 91 1016.5
20260906051544 62 0 0.0 0.0 0.00 0.18 0.00 91 1016.3
20260906050059 62 0 0.0 0.0 0.00 0.18 0.00 91 1016.5
20260906044541 63 0 0.0 1.0 0.00 0.18 0.00 91 1016.5
20260906043046 63 0 0.0 2.0 0.00 0.18 0.00 92 1016.6
20260906041540 62 0 0.0 0.0 0.00 0.18 0.00 91 1016.4
20260906040043 62 0 0.0 0.0 0.00 0.18 0.00 91 1016.5
20260906034544 62 0 0.0 0.0 0.00 0.18 0.18 91 1016.4
20260906033055 62 0 0.0 0.0 0.00 0.18 0.18 91 1016.4
20260906031539 62 0 0.0 1.0 0.00 0.18 0.18 92 1016.5
20260906030040 61 0 0.0 0.0 0.00 0.18 0.18 91 1016.6
20260906024542 61 0 0.0 1.0 0.00 0.18 0.18 91 1016.2
20260906023042 61 0 0.0 0.0 0.00 0.18 0.18 90 1016.1
20260906021548 61 0 0.0 0.0 0.00 0.18 0.18 90 1016.1
20260906020049 61 0 0.0 0.0 0.00 0.18 0.18 89 1015.9
20260906014554 61 0 0.0 0.0 0.00 0.18 0.18 88 1015.7
20260906013041 62 0 0.0 0.0 0.00 0.18 0.18 87 1015.6
20260906011542 62 0 0.0 0.0 0.00 0.18 0.18 86 1015.6
20260906010047 63 0 0.0 0.0 0.00 0.18 0.18 85 1015.6
20260906004544 64 0 0.0 0.0 0.00 0.18 0.18 84 1015.5
20260906003045 65 0 0.0 0.0 0.00 0.18 0.18 82 1015.6
20260906001543 66 0 0.0 0.0 0.00 0.18 0.18 79 1015.4
20260906000046 67 0 0.0 0.0 0.00 0.18 0.18 77 1015.3
20260905234547 69 0 0.0 0.0 0.00 0.18 0.18 75 1015.2
20260905233042 70 0 0.0 3.0 0.00 0.18 0.18 72 1015.2
20260905231546 71 83 1.0 7.0 0.00 0.18 0.18 71 1015.1
20260905230107 72 0 0.0 2.0 0.00 0.18 0.18 72 1015.0
20260905224543 73 11 1.0 5.0 0.00 0.18 0.18 72 1015.0
20260905223043 74 244 1.0 4.0 0.00 0.18 0.18 73 1014.9
20260905221543 74 321 3.0 10.0 0.00 0.18 0.18 72 1014.8
20260905220045 75 329 1.0 5.0 0.00 0.18 0.18 73 1014.8
20260905214544 75 111 1.0 9.0 0.00 0.18 0.18 75 1014.5
20260905213048 74 93 2.0 8.0 0.00 0.18 0.18 75 1014.4
20260905211548 74 312 1.0 7.0 0.00 0.18 0.18 77 1014.4
20260905210042 74 333 1.0 6.0 0.00 0.18 0.18 77 1014.4
20260905204540 74 50 1.0 8.0 0.00 0.18 0.18 77 1014.5
20260905203052 75 317 2.0 9.0 0.00 0.18 0.18 77 1014.6
20260905201543 75 0 2.0 4.0 0.00 0.18 0.18 75 1014.8
20260905200042 76 219 2.0 9.0 0.00 0.18 0.18 76 1014.8
20260905194546 76 111 0.0 4.0 0.00 0.18 0.18 78 1014.8